Terug naar catalogus

NOAA 16 DEB

ActiefSSO
NORAD 41266·DEBRIS·🇺🇸 United States

Gelanceerd Sep 21, 2000 vanaf Vandenberg Space Force Base

Loading…

Volgende Passages (komende 24 uur)

TLE

VersSource: Space-Track

Epoch: Sep 13, 2026, 11:23 UTC

1 41266U 00055FS  26256.47487165  .00002025  00000-0  82553-3 0  9997
2 41266  98.6437 321.7215 0005861 131.6715 228.4969 14.28495934552891

Volg NOAA 16 DEB in realtime met AllMySat

Download on the App Store